Regional Weather Roundup
Issued by NWS

Home | Current Version | Previous Version | Text Only | Print | Product List | Glossary On
Versions: 1 2 3 4 5 6 7 8 9 10 11 12 13 14 15 16 17 18 19 20 21 22 23 24 25 26 27 28 29 30 31 32 33 34 35 36 37 38 39 40 41 42 43 44 45 46 47 48 49 50
000
ASUS45 KBOI 210710
RWRID

IDAHO REGIONAL WEATHER ROUNDUP
NATIONAL WEATHER SERVICE BOISE ID
1200 AM MST SUN JAN 21 2018

NOTE: "FAIR" INDICATES FEW OR NO CLOUDS BELOW 12000 FEET
WITH NO SIGNIFICANT WEATHER AND/OR OBSTRUCTIONS TO VISIBILITY

IDZ012-014-210800-
SOUTHWEST IDAHO


CITY           SKY/WX    TMP DP  RH WIND       PRES   REMARKS
BOISE          CLOUDY    33  27  78 NE3       30.15R
CALDWELL         N/A     30  28  92 NW5       30.17R WCI  25
MOUNTAIN HOME  PTCLDY    28  28 100 NW6       30.13R WCI  21
$$

IDZ016-017-210800-
SOUTHCENTRAL IDAHO


CITY           SKY/WX    TMP DP  RH WIND       PRES   REMARKS
BURLEY         CLEAR     28  23  81 W10       30.05R WCI  19
JEROME         CLEAR     25  23  92 SW5       30.08R WCI  19
TWIN FALLS     CLEAR     25  23  92 SW14      30.08R WCI  13
$$

IDZ019>023-210800-
SOUTHEAST IDAHO


CITY           SKY/WX    TMP DP  RH WIND       PRES   REMARKS
IDAHO FALLS    CLEAR     22  16  78 N6        30.02R WCI  14
POCATELLO      PTCLDY    26  18  71 CALM      30.04R
REXBURG        CLEAR     15  12  88 E6        30.00S WCI   6
$$

IDZ006-010-011-018-031-032-210800-
CENTRAL IDAHO MOUNTAINS


CITY           SKY/WX    TMP DP  RH WIND       PRES   REMARKS
MCCALL         CLOUDY    23  21  92 CALM      30.07R
HAILEY         CLEAR     19  10  68 N9        30.05R WCI   9
STANLEY          N/A     17  12  80 E3        30.03R
SALMON         CLOUDY    26  22  84 CALM      30.10R
CHALLIS        CLOUDY    28  18  66 CALM      30.04R
$$

IDZ002-004-006-007-026-210800-
NORTHERN IDAHO


CITY           SKY/WX    TMP DP  RH WIND       PRES   REMARKS
LEWISTON       CLOUDY    36  33  89 CALM      30.15S
LOWELL           N/A     35  35 100 CALM      30.21R
COEUR D`ALENE  PTCLDY    32  30  92 S6        30.11R WCI  26
MULLAN PASS    CLOUDY    22  19  89 VRB7      29.99R WCI  13
$$



USA.gov is the U.S. government's official web portal to all federal, state and local government web resources and services.